| time (UTC) | temp F | wind direction | speed MPH | gust MPH | rain 1hr in | rain 24hr in | rain mn in | humidity % | barometer mb |
| 20260504023453 | 0 | 351 | 1.0 | 6.0 | 0.00 | 0.00 | 0.00 | 86 | 1011.0 |
| 20260504022929 | 0 | 12 | 2.0 | 6.0 | 0.00 | 0.00 | 0.00 | 86 | 1010.9 |
| 20260504022406 | 0 | 319 | 3.0 | 6.0 | 0.00 | 0.00 | 0.00 | 85 | 1010.9 |
| 20260504021843 | 0 | 277 | 2.0 | 10.0 | 0.00 | 0.00 | 0.00 | 85 | 1010.9 |
| 20260504021320 | 0 | 357 | 1.0 | 10.0 | 0.00 | 0.00 | 0.00 | 83 | 1010.8 |
| 20260504020757 | 0 | 18 | 3.0 | 9.0 | 0.00 | 0.00 | 0.00 | 81 | 1010.8 |
| 20260504020234 | 0 | 15 | 2.0 | 9.0 | 0.00 | 0.00 | 0.00 | 81 | 1011.1 |
| 20260504015711 | 0 | 25 | 3.0 | 7.0 | 0.00 | 0.00 | 0.00 | 81 | 1010.9 |
| 20260504015148 | 0 | 15 | 3.0 | 6.0 | 0.00 | 0.00 | 0.00 | 82 | 1010.9 |
| 20260504014625 | 0 | 350 | 4.0 | 6.0 | 0.00 | 0.00 | 0.00 | 80 | 1010.9 |
| 20260504014102 | 0 | 12 | 3.0 | 8.0 | 0.00 | 0.00 | 0.00 | 75 | 1010.8 |
| 20260504013539 | 0 | 40 | 2.0 | 8.0 | 0.00 | 0.00 | 0.00 | 71 | 1010.4 |
| 20260504013016 | 0 | 14 | 5.0 | 8.0 | 0.00 | 0.00 | 0.00 | 63 | 1010.7 |
| 20260504012453 | 0 | 340 | 5.0 | 8.0 | 0.00 | 0.00 | 0.00 | 61 | 1010.7 |
| 20260504011930 | 0 | 344 | 4.0 | 8.0 | 0.00 | 0.00 | 0.00 | 60 | 1011.1 |
| 20260504011407 | 0 | 14 | 3.0 | 6.0 | 0.00 | 0.00 | 0.00 | 57 | 1011.2 |
| 20260504010844 | 0 | 46 | 2.0 | 7.0 | 0.00 | 0.00 | 0.00 | 56 | 1011.1 |
| 20260504010322 | 0 | 32 | 4.0 | 7.0 | 0.00 | 0.00 | 0.00 | 57 | 1011.0 |
| 20260504005758 | 0 | 29 | 4.0 | 6.0 | 0.00 | 0.00 | 0.00 | 54 | 1010.9 |
| 20260504005236 | 0 | 29 | 3.0 | 5.0 | 0.00 | 0.00 | 0.00 | 51 | 1010.9 |
| 20260504004712 | 0 | 32 | 3.0 | 5.0 | 0.00 | 0.00 | 0.00 | 50 | 1010.8 |
| 20260504004150 | 0 | 18 | 3.0 | 5.0 | 0.00 | 0.00 | 0.00 | 50 | 1010.7 |
| 20260504003626 | 0 | 43 | 4.0 | 5.0 | 0.00 | 0.00 | 0.00 | 50 | 1010.8 |
| 20260504003103 | 0 | 70 | 4.0 | 5.0 | 0.00 | 0.00 | 0.00 | 47 | 1010.8 |
| 20260504002540 | 0 | 37 | 3.0 | 5.0 | 0.00 | 0.00 | 0.00 | 47 | 1010.6 |
| 20260504002017 | 0 | 25 | 3.0 | 5.0 | 0.00 | 0.00 | 0.00 | 46 | 1010.7 |
| 20260504001454 | 0 | 25 | 2.0 | 5.0 | 0.00 | 0.00 | 0.00 | 43 | 1010.7 |
| 20260504000931 | 0 | 36 | 3.0 | 5.0 | 0.00 | 0.00 | 0.00 | 38 | 1010.7 |
| 20260504000409 | 0 | 44 | 2.0 | 5.0 | 0.00 | 0.00 | 0.00 | 34 | 1010.9 |
| 20260503235845 | 0 | 56 | 2.0 | 5.0 | 0.00 | 0.00 | 0.00 | 35 | 1010.9 |
| 20260503235322 | 0 | 35 | 3.0 | 5.0 | 0.00 | 0.00 | 0.00 | 33 | 1010.9 |
| 20260503234759 | 0 | 117 | 2.0 | 8.0 | 0.00 | 0.00 | 0.00 | 32 | 1010.9 |
| 20260503234236 | 0 | 109 | 2.0 | 8.0 | 0.00 | 0.00 | 0.00 | 30 | 1010.8 |
| 20260503233713 | 0 | 102 | 4.0 | 9.0 | 0.00 | 0.00 | 0.00 | 27 | 1011.0 |
| 20260503233150 | 0 | 107 | 5.0 | 9.0 | 0.00 | 0.00 | 0.00 | 28 | 1011.2 |
| 20260503232627 | 0 | 105 | 4.0 | 9.0 | 0.00 | 0.00 | 0.00 | 27 | 1011.2 |
| 20260503232104 | 0 | 105 | 6.0 | 8.0 | 0.00 | 0.00 | 0.00 | 27 | 1011.1 |
| 20260503231541 | 0 | 105 | 4.0 | 11.0 | 0.00 | 0.00 | 0.00 | 28 | 1010.9 |
| 20260503231019 | 0 | 86 | 4.0 | 11.0 | 0.00 | 0.00 | 0.00 | 26 | 1011.1 |
| 20260503230455 | 0 | 86 | 6.0 | 11.0 | 0.00 | 0.00 | 0.00 | 26 | 1011.0 |
| 20260503225932 | 0 | 86 | 5.0 | 9.0 | 0.00 | 0.00 | 0.00 | 24 | 1011.2 |
| 20260503225409 | 0 | 103 | 5.0 | 9.0 | 0.00 | 0.00 | 0.00 | 23 | 1011.4 |
| 20260503224846 | 0 | 100 | 4.0 | 9.0 | 0.00 | 0.00 | 0.00 | 20 | 1011.4 |
| 20260503224414 | 0 | 105 | 4.0 | 8.0 | 0.00 | 0.00 | 0.00 | 18 | 1011.3 |
| 20260503224323 | 0 | 105 | 4.0 | 8.0 | 0.00 | 0.00 | 0.00 | 18 | 1011.3 |
| 20260503223800 | 0 | 82 | 3.0 | 7.0 | 0.00 | 0.00 | 0.00 | 18 | 1011.2 |
| 20260503223237 | 0 | 109 | 2.0 | 7.0 | 0.00 | 0.00 | 0.00 | 14 | 1011.2 |
| 20260503222714 | 0 | 84 | 1.0 | 7.0 | 0.00 | 0.00 | 0.00 | 18 | 1011.3 |
| 20260503222151 | 0 | 110 | 3.0 | 7.0 | 0.00 | 0.00 | 0.00 | 21 | 1011.5 |
| 20260503221628 | 0 | 106 | 1.0 | 7.0 | 0.00 | 0.00 | 0.00 | 22 | 1011.5 |
| 20260503221104 | 0 | 98 | 1.0 | 7.0 | 0.00 | 0.00 | 0.00 | 22 | 1011.8 |
| 20260503220541 | 0 | 57 | 1.0 | 8.0 | 0.00 | 0.00 | 0.00 | 22 | 1011.9 |
| 20260503220018 | 0 | 98 | 4.0 | 8.0 | 0.00 | 0.00 | 0.00 | 22 | 1011.8 |
| 20260503215455 | 0 | 103 | 4.0 | 8.0 | 0.00 | 0.00 | 0.00 | 20 | 1012.1 |
| 20260503214933 | 0 | 103 | 4.0 | 8.0 | 0.00 | 0.00 | 0.00 | 23 | 1012.1 |
| 20260503214409 | 0 | 103 | 2.0 | 8.0 | 0.00 | 0.00 | 0.00 | 23 | 1012.0 |
| 20260503213847 | 0 | 100 | 5.0 | 7.0 | 0.00 | 0.00 | 0.00 | 22 | 1012.2 |
| 20260503213323 | 0 | 127 | 3.0 | 8.0 | 0.00 | 0.00 | 0.00 | 24 | 1012.2 |
| 20260503212801 | 0 | 109 | 5.0 | 8.0 | 0.00 | 0.00 | 0.00 | 23 | 1012.2 |
| 20260503212237 | 0 | 100 | 5.0 | 7.0 | 0.00 | 0.00 | 0.00 | 23 | 1012.3 |
| 20260503211714 | 0 | 105 | 4.0 | 7.0 | 0.00 | 0.00 | 0.00 | 23 | 1012.3 |
| 20260503211151 | 0 | 128 | 3.0 | 7.0 | 0.00 | 0.00 | 0.00 | 24 | 1012.4 |
| 20260503210628 | 0 | 102 | 2.0 | 7.0 | 0.00 | 0.00 | 0.00 | 24 | 1012.5 |
| 20260503210105 | 0 | 123 | 2.0 | 7.0 | 0.00 | 0.00 | 0.00 | 24 | 1012.4 |
| 20260503205543 | 0 | 103 | 3.0 | 7.0 | 0.00 | 0.00 | 0.00 | 25 | 1012.3 |
| 20260503205019 | 0 | 119 | 3.0 | 7.0 | 0.00 | 0.00 | 0.00 | 27 | 1012.5 |
| 20260503204456 | 0 | 114 | 2.0 | 8.0 | 0.00 | 0.00 | 0.00 | 28 | 1012.3 |
| 20260503203934 | 0 | 95 | 3.0 | 8.0 | 0.00 | 0.00 | 0.00 | 27 | 1012.3 |
| 20260503203410 | 0 | 105 | 3.0 | 8.0 | 0.00 | 0.00 | 0.00 | 29 | 1012.4 |
| 20260503202847 | 0 | 119 | 2.0 | 8.0 | 0.00 | 0.00 | 0.00 | 28 | 1012.5 |
| 20260503202324 | 0 | 119 | 1.0 | 8.0 | 0.00 | 0.00 | 0.00 | 30 | 1012.8 |
| 20260503201801 | 0 | 119 | 4.0 | 7.0 | 0.00 | 0.00 | 0.00 | 28 | 1012.7 |
| 20260503201239 | 0 | 117 | 4.0 | 8.0 | 0.00 | 0.00 | 0.00 | 27 | 1012.7 |
| 20260503200716 | 0 | 112 | 3.0 | 8.0 | 0.00 | 0.00 | 0.00 | 29 | 1012.8 |
| 20260503200152 | 0 | 109 | 2.0 | 8.0 | 0.00 | 0.00 | 0.00 | 28 | 1012.8 |
| 20260503195629 | 0 | 137 | 4.0 | 7.0 | 0.00 | 0.00 | 0.00 | 28 | 1012.9 |
| 20260503195106 | 0 | 121 | 3.0 | 8.0 | 0.00 | 0.00 | 0.00 | 27 | 1012.9 |
| 20260503194543 | 0 | 120 | 3.0 | 8.0 | 0.00 | 0.00 | 0.00 | 25 | 1012.7 |
| 20260503194023 | 0 | 81 | 3.0 | 8.0 | 0.00 | 0.00 | 0.00 | 24 | 1012.9 |
| 20260503193457 | 0 | 107 | 1.0 | 6.0 | 0.00 | 0.00 | 0.00 | 28 | 1012.8 |
| 20260503192934 | 0 | 95 | 0.0 | 6.0 | 0.00 | 0.00 | 0.00 | 26 | 1012.6 |
| 20260503192411 | 0 | 123 | 1.0 | 5.0 | 0.00 | 0.00 | 0.00 | 28 | 1012.6 |
| 20260503191848 | 0 | 120 | 2.0 | 5.0 | 0.00 | 0.00 | 0.00 | 29 | 1012.9 |
| 20260503191325 | 0 | 110 | 1.0 | 5.0 | 0.00 | 0.00 | 0.00 | 29 | 1012.7 |
| 20260503190802 | 0 | 98 | 2.0 | 2.0 | 0.00 | 0.00 | 0.00 | 27 | 1012.5 |
| 20260503190239 | 0 | 235 | 0.0 | 5.0 | 0.00 | 0.00 | 0.00 | 26 | 1012.7 |
| 20260503185716 | 0 | 106 | 0.0 | 5.0 | 0.00 | 0.00 | 0.00 | 22 | 1012.9 |
| 20260503185153 | 0 | 247 | 2.0 | 3.0 | 0.00 | 0.00 | 0.00 | 23 | 1012.9 |
| 20260503184631 | 0 | 236 | 0.0 | 3.0 | 0.00 | 0.00 | 0.00 | 23 | 1012.8 |
| 20260503184107 | 0 | 245 | 0.0 | 3.0 | 0.00 | 0.00 | 0.00 | 25 | 1012.7 |
| 20260503183544 | 0 | 110 | 0.0 | 2.0 | 0.00 | 0.00 | 0.00 | 25 | 1012.8 |
| 20260503183021 | 0 | 212 | 0.0 | 2.0 | 0.00 | 0.00 | 0.00 | 27 | 1013.0 |
| 20260503182458 | 0 | 82 | 0.0 | 3.0 | 0.00 | 0.00 | 0.00 | 27 | 1012.8 |
| 20260503181935 | 0 | 82 | 0.0 | 3.0 | 0.00 | 0.00 | 0.00 | 24 | 1012.7 |
| 20260503181412 | 0 | 236 | 0.0 | 3.0 | 0.00 | 0.00 | 0.00 | 24 | 1012.6 |
| 20260503180849 | 0 | 252 | 0.0 | 2.0 | 0.00 | 0.00 | 0.00 | 23 | 1012.9 |
| 20260503180326 | 0 | 264 | 0.0 | 3.0 | 0.00 | 0.00 | 0.00 | 22 | 1012.7 |
| 20260503175803 | 0 | 224 | 0.0 | 3.0 | 0.00 | 0.00 | 0.00 | 23 | 1012.8 |
| 20260503175240 | 0 | 211 | 1.0 | 2.0 | 0.00 | 0.00 | 0.00 | 23 | 1012.9 |
| 20260503174717 | 0 | 266 | 0.0 | 2.0 | 0.00 | 0.00 | 0.00 | 26 | 1013.0 |
| 20260503174155 | 0 | 126 | 0.0 | 4.0 | 0.00 | 0.00 | 0.00 | 25 | 1013.0 |
| 20260503173631 | 0 | 240 | 0.0 | 4.0 | 0.00 | 0.00 | 0.00 | 25 | 1012.9 |
| 20260503173108 | 0 | 210 | 0.0 | 4.0 | 0.00 | 0.00 | 0.00 | 24 | 1013.0 |
| 20260503172545 | 0 | 221 | 0.0 | 3.0 | 0.00 | 0.00 | 0.00 | 27 | 1013.0 |
| 20260503172022 | 0 | 190 | 0.0 | 3.0 | 0.00 | 0.00 | 0.00 | 26 | 1012.9 |
| 20260503171459 | 0 | 205 | 0.0 | 3.0 | 0.00 | 0.00 | 0.00 | 26 | 1012.7 |
| 20260503170936 | 0 | 264 | 0.0 | 3.0 | 0.00 | 0.00 | 0.00 | 25 | 1012.7 |
| 20260503170413 | 0 | 0 | 0.0 | 3.0 | 0.00 | 0.00 | 0.00 | 27 | 1012.9 |
| 20260503150547 | 0 | 219 | 0.0 | 4.0 | 0.00 | 0.00 | 0.00 | 30 | 1012.2 |
| 20260503140110 | 0 | 0 | 0.0 | 3.0 | 0.00 | 0.00 | 0.00 | 40 | 1012.4 |
| 20260503131243 | 0 | 173 | 0.0 | 1.0 | 0.00 | 0.00 | 0.00 | 43 | 1012.3 |
| 20260503130720 | 0 | 247 | 0.0 | 1.0 | 0.00 | 0.00 | 0.00 | 42 | 1012.2 |
| 20260503130157 | 0 | 229 | 0.0 | 1.0 | 0.00 | 0.00 | 0.00 | 42 | 1012.3 |
| 20260503110331 | 0 | 0 | 0.0 | 0.0 | 0.00 | 0.00 | 0.00 | 46 | 1012.8 |
| 20260503090506 | 0 | 0 | 0.0 | 0.0 | 0.00 | 0.00 | 0.00 | 47 | 1013.4 |
| 20260503081116 | 0 | 0 | 0.0 | 4.0 | 0.00 | 0.00 | 0.00 | 51 | 1013.3 |
| 20260503080552 | 0 | 0 | 0.0 | 4.0 | 0.00 | 0.00 | 0.00 | 51 | 1013.4 |
| 20260503072811 | 0 | 235 | 1.0 | 5.0 | 0.00 | 0.00 | 0.00 | 52 | 1013.5 |
| 20260503072247 | 0 | 219 | 3.0 | 4.0 | 0.00 | 0.00 | 0.00 | 54 | 1013.5 |
| 20260503071725 | 0 | 0 | 1.0 | 2.0 | 0.00 | 0.00 | 0.00 | 55 | 1013.5 |
| 20260503071201 | 0 | 0 | 0.0 | 0.0 | 0.00 | 0.00 | 0.00 | 63 | 1013.5 |
| 20260503070638 | 0 | 0 | 0.0 | 0.0 | 0.00 | 0.00 | 0.00 | 65 | 1013.4 |
| 20260503070116 | 0 | 0 | 0.0 | 0.0 | 0.00 | 0.00 | 0.00 | 66 | 1013.5 |
| 20260503060202 | 0 | 238 | 0.0 | 3.0 | 0.00 | 0.00 | 0.00 | 77 | 1013.6 |
| 20260503055116 | 0 | 280 | 0.0 | 2.0 | 0.00 | 0.00 | 0.00 | 78 | 1013.5 |
| 20260503054554 | 0 | 270 | 0.0 | 4.0 | 0.00 | 0.00 | 0.00 | 78 | 1013.7 |
| 20260503054030 | 0 | 18 | 0.0 | 4.0 | 0.00 | 0.00 | 0.00 | 79 | 1013.6 |
| 20260503053507 | 0 | 100 | 0.0 | 4.0 | 0.00 | 0.00 | 0.00 | 78 | 1013.5 |
| 20260503052945 | 0 | 0 | 0.0 | 5.0 | 0.00 | 0.00 | 0.00 | 80 | 1013.7 |
| 20260503052422 | 0 | 93 | 0.0 | 5.0 | 0.00 | 0.00 | 0.00 | 81 | 1013.7 |
| 20260503051858 | 0 | 100 | 2.0 | 5.0 | 0.00 | 0.00 | 0.00 | 80 | 1013.7 |
| 20260503051335 | 0 | 0 | 0.0 | 1.0 | 0.00 | 0.00 | 0.00 | 81 | 1013.6 |
| 20260503050812 | 0 | 0 | 0.0 | 1.0 | 0.00 | 0.00 | 0.00 | 81 | 1013.6 |
| 20260503050249 | 0 | 138 | 0.0 | 1.0 | 0.00 | 0.00 | 0.00 | 81 | 1013.7 |
| 20260503045726 | 0 | 0 | 0.0 | 3.0 | 0.00 | 0.00 | 0.00 | 81 | 1013.8 |
| 20260503045203 | 0 | 85 | 0.0 | 3.0 | 0.00 | 0.00 | 0.00 | 77 | 1013.8 |
| 20260503044640 | 0 | 0 | 0.0 | 10.0 | 0.00 | 0.00 | 0.00 | 77 | 1013.8 |
| 20260503044117 | 0 | 98 | 0.0 | 10.0 | 0.00 | 0.00 | 0.00 | 78 | 1013.7 |
| 20260503043554 | 0 | 92 | 3.0 | 10.0 | 0.00 | 0.00 | 0.00 | 77 | 1013.7 |
| 20260503043032 | 0 | 88 | 4.0 | 10.0 | 0.00 | 0.00 | 0.00 | 75 | 1013.2 |
| 20260503042509 | 0 | 109 | 3.0 | 9.0 | 0.00 | 0.00 | 0.00 | 76 | 1013.3 |
| 20260503041945 | 0 | 105 | 6.0 | 9.0 | 0.00 | 0.00 | 0.00 | 76 | 1013.2 |
| 20260503041423 | 0 | 95 | 5.0 | 9.0 | 0.00 | 0.00 | 0.00 | 75 | 1013.2 |
| 20260503040901 | 0 | 105 | 5.0 | 9.0 | 0.00 | 0.00 | 0.00 | 76 | 1013.3 |
| 20260503040336 | 0 | 89 | 4.0 | 9.0 | 0.00 | 0.00 | 0.00 | 76 | 1013.3 |
| 20260503035813 | 0 | 103 | 5.0 | 9.0 | 0.00 | 0.00 | 0.00 | 75 | 1013.5 |
| 20260503035250 | 0 | 103 | 5.0 | 7.0 | 0.00 | 0.00 | 0.00 | 72 | 1013.6 |
| 20260503034727 | 0 | 96 | 4.0 | 5.0 | 0.00 | 0.00 | 0.00 | 69 | 1013.6 |
| 20260503034204 | 0 | 109 | 2.0 | 6.0 | 0.00 | 0.00 | 0.00 | 67 | 1013.4 |
| 20260503033641 | 0 | 131 | 0.0 | 6.0 | 0.00 | 0.00 | 0.00 | 69 | 1013.7 |
| 20260503033118 | 0 | 100 | 0.0 | 6.0 | 0.00 | 0.00 | 0.00 | 67 | 1013.6 |
| 20260503032555 | 0 | 103 | 2.0 | 7.0 | 0.00 | 0.00 | 0.00 | 64 | 1013.4 |
| 20260503032032 | 0 | 114 | 0.0 | 7.0 | 0.00 | 0.00 | 0.00 | 66 | 1013.5 |
| 20260503031510 | 0 | 96 | 0.0 | 7.0 | 0.00 | 0.00 | 0.00 | 62 | 1013.3 |
| 20260503030946 | 0 | 78 | 3.0 | 5.0 | 0.00 | 0.00 | 0.00 | 64 | 1013.7 |
| 20260503030423 | 0 | 0 | 0.0 | 0.0 | 0.00 | 0.00 | 0.00 | 65 | 1013.8 |
| 20260503025900 | 0 | 0 | 0.0 | 0.0 | 0.00 | 0.00 | 0.00 | 65 | 1013.8 |
| 20260503025337 | 0 | 0 | 0.0 | 0.0 | 0.00 | 0.00 | 0.00 | 66 | 1013.7 |
| 20260503024814 | 0 | 0 | 0.0 | 1.0 | 0.00 | 0.00 | 0.00 | 66 | 1013.9 |
| 20260503024251 | 0 | 0 | 0.0 | 1.0 | 0.00 | 0.00 | 0.00 | 66 | 1013.9 |